Rbgn^[z[y[W
メイン
   新天体発見情報
     Comet C/2017 C1 (NEOWISE)
投稿するにはまず登録を

スレッド表示 | 新しいものから 前のトピック | 次のトピック | 下へ
投稿者 スレッド
佐藤裕久
投稿日時: 2017-2-13 12:58
モデレータ
登録日: 2005-6-12
居住地: 日本
投稿: 1752
オンライン
Comet C/2017 C1 (NEOWISE)

James Bauer (Jet推進研究所)の通報によると、2月6日UT、Near-Earth Object Wide-field Infrared 
Survey Explorer (NEOWISE:地球近傍天体広域赤外線探査衛星、以前のWISE:広域赤外線探査衛星;CBET
 4225参照)で得た赤外線画像から彗星を発見した。光度は光学波長の大きさから推定される。
イメージは弱く拡張したコマを示したが、確実ではなかった。小惑星センターのPCCP webpageに公表
された。
W. H. RyanとE. V. Ryanは、2月10.45-10.47日UTMagdalena Ridge天文台の2.4-m f/8.9反射望遠鏡 +
G-バンドフィルターでフォローアップCCD画像を得た。明確なコマとp.a.約325°に向かって伸びた
広い尾が見える(光度は19.6-20.0等)。2月11.4日の追加画像は、悪い気象条件でもコマが見える。

発見位置は次のとおり、

     2017 UT             R.A. (2000) Decl.        Mag.
     Feb.  6.09420   17 22 14.63   +60 41 48.9     19
           6.09433   17 22 14.82   +60 41 50.0
           6.22523   17 21 51.51   +60 44 56.6
           6.35627   17 21 28.12   +60 48 02.8
           6.48717   17 21 04.25   +60 51 10.5
           6.61820   17 20 40.41   +60 54 17.4
           6.74911   17 20 16.05   +60 57 30.1
           6.88014   17 19 51.79   +61 00 39.0

暫定放物線軌道要素と位置推算表は次のとおり、

Orbital elements:
    C/2017 C1 (NEOWISE)
T 2017 Jan. 21.92580 TT                                 MPCW
q   1.5289943            (2000.0)            P               Q
                   Peri.  112.32112     -0.35833997     -0.93210723
                   Node   356.71889     +0.01509412     +0.05056838
e   1.0            Incl.   66.82718     +0.93346914     -0.35863485
>From 24 observations 2017 Feb. 6-11.

Ephemeris:
    C/2017 C1 (NEOWISE)
Date    TT    R. A. (2000) Decl.     Delta      r     Elong.  Phase   m1
2017 01 13    17 59 25.2 +53 58 22   1.3908  1.5340    78.4    38.9  20.6
...
2017 01 28    17 42 40.8 +57 28 19   1.2735  1.5313    84.4    39.8  20.4
...
2017 02 05    17 25 22.2 +60 16 08   1.2033  1.5415    88.9    39.8  20.3
...
2017 02 11    17 05 11.7 +62 43 06   1.1504  1.5542    93.0    39.4  20.2
2017 02 12    17 00 59.8 +63 08 44   1.1417  1.5567    93.7    39.3  20.2
2017 02 13    16 56 30.9 +63 34 32   1.1331  1.5594    94.4    39.1  20.2
...
2017 02 19    16 22 27.8 +66 07 20   1.0836  1.5778    99.1    38.2  20.2
...
2017 02 27    15 12 37.3 +68 41 54   1.0277  1.6085   105.7    36.4  20.1
...
2017 03 14    12 19 46.0 +65 05 49   0.9799  1.6835   117.0    31.7  20.2

(CBET 4358、MPEC 2017-C82)

スレッド表示 | 新しいものから 前のトピック | 次のトピック | トップ

投稿するにはまず登録を
 
© 1999-2013 Tsutomu Seki.